User: anonymous   Login
Location: Cronhütte
(48.9135°N, 9.6869°E)
Time: 19:09:09
(UTC+00:00)
Language:

IDEFIX/ARIANE 42P - Orbit

View from above orbital plane
View from above orbital plane
View from above satellite
View from above satellite

Ground track
Ground track

The orbit data is extracted from the following two-line orbital elements,

1 27422U 02021B   24202.10303730  .00000679  00000-0  27881-3 0  9990
2 27422  98.5276 139.1316 0012596 142.2662 217.9406 14.30174232156677
Epoch (UTC): 20 July 2024 02:28:22
Eccentricity: 0.0012596
inclination: 98.5276°
perigee height: 782 km
apogee height: 800 km
right ascension of ascending node: 139.1316°
argument of perigee: 142.2662°
revolutions per day: 14.30174232
mean anomaly at epoch: 217.9406°
orbit number at epoch: 15667

The dashed part of the orbit path shows where the satellite is in the earth's shadow,  

DLR